AirNav   Air Wisconsin pilot careers
 
 719 users online  

7K6 Wilcox Field Airport
Anthony, Kansas, USA

GOING TO ANTHONY?


FAA INFORMATION EFFECTIVE 11 OCTOBER 2018

Location

FAA Identifier: 7K6
Lat/Long: 37-04-57.6000N / 097-57-52.1000W
37-04.960000N / 097-57.868333W
37.0826667 / -97.9644722
(estimated)
Elevation: 1263 ft. / 385.0 m (surveyed)
Variation: 07E (1985)
From city: 5 miles SE of ANTHONY, KS
Time zone: UTC -5 (UTC -6 during Standard Time)
Zip code: 67003

Airport Operations

Airport use: Open to the public
Activation date: 04/1968
Control tower: no
ARTCC: KANSAS CITY CENTER
FSS: WICHITA FLIGHT SERVICE STATION
NOTAMs facility: ICT (NOTAM-D service available)
Attendance: UNATNDD
Wind indicator: yes
Segmented circle: no

Airport Communications

CTAF: 122.9

Nearby radio navigation aids

VOR radial/distance  VOR name  Freq  Var
ANYr108/10.9ANTHONY VORTAC112.9007E

Airport Services

Parking: tiedowns
Airframe service: MAJOR
Powerplant service: NONE
Bottled oxygen: NONE
Bulk oxygen: NONE

Runway Information

Runway 18/36

Dimensions: 2100 x 80 ft. / 640 x 24 m
Surface: turf, in fair condition
SURFACE ROUGH.
Gradient: N
RUNWAY 18  RUNWAY 36
Latitude: 37-05.131528N37-04.786850N
Longitude: 097-57.849218W097-57.888920W
Elevation: 1262.0 ft.1255.0 ft.
Gradient: 0.3% UP
Traffic pattern: leftleft
Runway heading: 178 magnetic, 185 true358 magnetic, 005 true
Obstructions: 18 ft. tree, 500 ft. from runway, 27:1 slope to clear34 ft. trees, 90 ft. from runway, 20 ft. left of centerline, 2:1 slope to clear

Runway B1

Dimensions: 1400 x 1600 ft. / 427 x 488 m
Surface: turf, in poor condition
ROUGH CULTIVATED FIELD.
Traffic pattern: leftleft

Airport Ownership and Management from official FAA records

Ownership: Privately-owned
Owner: HERBERT L. WILCOX
462 SE 40TH AVE
ANTHONY, KS 67003
Phone 620-842-3261
Manager: HERBERT L. WILCOX
462 SE 40TH AVE
ANTHONY, KS 67003
Phone 620-842-3367

Airport Operational Statistics

Aircraft based on the field: 2
Single engine airplanes: 2
    
Aircraft operations: 80/year *
88% local general aviation
12% transient general aviation
* for 12-month period ending 26 June 2015

Additional Remarks

6 BALLOONS BASED ON ARPT.
FARM ANIMALS OCNLY GRAZE ON RY 18/36 & ON B1.
RY B1 TREES EAST & SOUTH; POWERLINE WEST.
PROPANE & HELIUM GAS AVBL; CALL AMGR (620) 842-3367.

Instrument Procedures

There are no published instrument procedures at 7K6.

Some nearby airports with instrument procedures:

KANY - Anthony Municipal Airport (7 nm NW)
8K2 - Harper Municipal Airport (12 nm N)
O53 - Medford Municipal Airport (20 nm SE)
KEGT - Wellington Municipal Airport (31 nm NE)
KBKN - Blackwell-Tonkawa Municipal Airport (36 nm SE)
 
Loc | Ops | Rwys | IFR | FBO | Links
Com | Nav | Svcs | Stats | Notes

Kansas City Aviation Department
 
Area around 7K6 (Wilcox Field Airport)
 
Road maps at: MapQuest Bing Google
 
Aerial photo
WARNING: Photo may not be current or correct
Aerial photo of 7K6 (Wilcox Field Airport)
Photo by Von Rothenberger
Photo taken 03-Sep-2010
looking north.

Do you have a better or more recent aerial photo of Wilcox Field Airport that you would like to share? If so, please send us your photo.

 
Sectional chart

 
Airport distance calculator
Flying to Wilcox Field Airport? Find the distance to fly.

From to 7K6

Sunrise and sunset
Times for 15-Oct-2018
 Local
(UTC-5)
 Zulu
(UTC)
Morning civil twilight07:1412:14
Sunrise07:4112:41
Sunset18:5523:55
Evening civil twilight19:2100:21

Current date and time
Zulu (UTC)  15-Oct-2018 11:42:09
Local (UTC-5)  15-Oct-2018 06:42:09
 
METAR
8K2 
12nm N 
SuperAWOS
150755Z AUTO 00000KT 01/M02 A3037
TAF
KICT 
42nm NE 
150520Z 1506/1606 35015G22KT P6SM SCT009 BKN015 FM150700 35012KT P6SM SCT030 OVC100 FM151000 35011KT P6SM SCT100
KEND 
46nm S 
151000Z 1510/1616 35010G15KT 9999 BKN015 QNH3033INS BECMG 1511/1512 35012G18KT 9999 BKN025 QNH3035INS BECMG 1519/1520 36012KT 9999 FEW045 SCT100 QNH3035INS BECMG 1600/1601 VRB06KT 9999 FEW200 QNH3034INS TX08/1520Z TN00/1513Z
KIAB 
46nm NE 
151000Z 1510/1616 36012KT 9999 FEW150 QNH3034INS BECMG 1513/1514 36009KT 9999 SKC QNH3036INS BECMG 1603/1604 VRB06KT 9999 SKC QNH3033INS TX08/1521Z TNM01/1511Z
KPNC 
46nm SE 
150520Z 1506/1606 35017G24KT P6SM VCSH OVC015 FM151100 36013G20KT P6SM SCT025 BKN080 FM152000 36011KT P6SM SCT120
NOTAMs
Click for the latest NOTAMs
NOTAMs are issued by the DoD/FAA and will open in a separate window not controlled by AirNav.

 

 
 

Would you like to see your business listed on this page?

 If your business provides an interesting product or service to pilots, flight crews, aircraft, or users of the Wilcox Field Airport, you should consider listing it here.  To start the listing process, click on the button below
 
Add a business
 

Other Pages about Wilcox Field Airport

Update a link
 
Copyright © AirNav, LLC. All rights reserved. Privacy Policy  Contact